Location: Calgary
(51.0833°N, 114.0833°W)
Time: 05:49:49

N. Korean satellite - Visible Passes

Search period start: 18 March 2018 00:00
Search period end: 28 March 2018 00:00
Orbit: 460 x 512 km, 97.2° (Epoch: 17 March)

Date Brightness Start Highest point End Pass type
(mag) Time Alt. Az. Time Alt. Az. Time Alt. Az.
18 Mar 9.9 20:26:14 10° SW 20:28:41 17° W 20:31:11 10° NW visible
21 Mar 10.8 07:01:31 10° ENE 07:02:19 11° E 07:03:06 10° E visible
21 Mar 10.7 20:50:45 10° W 20:50:59 10° W 20:51:12 10° W visible
22 Mar 9.9 20:24:19 10° SW 20:26:52 18° W 20:29:28 10° NW visible
25 Mar 10.6 20:48:18 10° W 20:49:08 11° W 20:49:57 10° WNW visible
